Location: Unspecified
(47.4992°N, 121.7766°W)
Time: 16:12:51
(UTC-07:00)

ISS - Pass Details

Date: 28 April 2024
Orbit: 410 x 414 km, 51.6° (Epoch: 18 May)

Event Time Altitude Azimuth Distance (km) Brightness Sun altitude
Exits shadow 04:09:11 36° 252° (WSW) 666 -3.2 -15.7°
Maximum altitude 04:10:23 83° 337° (NNW) 419 -3.8 -15.5°
Drops below altitude 10° 04:13:43 10° 65° (ENE) 1,479 0.2 -15.1°
Sets 04:15:48 0° 66° (ENE) 2,342 1.5 -14.8°
